Theta_e
282 279 277 278 280 281 282 283 282 277 278 278 277 276 276 276 275 275 275 277 279 280 279 279 279 278 281 281 280 281 279 279 279 279 279 281 282 281 281 282 283 284 286 289 290 290 290 290 292 293 294 294 295 295 296 298 299 300 302 304 305 308 310 311 313 317 320 319 320 321 323 324 326 326 327 327 328 328 329 328 328 328 328 330 333 333
282 277 278 279 279 281 282 279 276 277 276 277 277 276 276 274 274 275 278 278 277 281 277 278 278 279 280 281 280 280 280 279 278 278 278 278 279 280 281 282 283 285 286 286 285 286 287 287 287 289 290 292 291 292 293 294 296 297 299 300 301 302 303 303 306 311 315 318 321 320 320 322 323 324 324 325 325 326 326 327 327 327 327 327 327 328
278 277 278 279 277 278 278 278 278 280 277 274 275 275 274 274 273 274 276 278 278 281 277 275 277 279 280 280 279 279 279 278 278 278 278 279 280 281 281 282 282 282 281 281 282 282 283 284 284 285 286 287 289 290 291 292 293 294 295 297 298 299 299 300 302 305 310 315 319 320 320 321 319 316 318 320 319 320 322 322 323 323 324 326 326 326
274 277 280 279 278 279 278 277 278 278 276 274 273 273 273 273 274 272 275 277 278 279 277 274 276 276 276 276 276 277 278 277 278 279 279 280 280 279 279 279 279 279 278 278 279 279 281 282 281 282 282 283 284 286 288 289 289 291 292 293 296 296 297 298 299 302 305 311 316 318 317 316 317 316 312 315 316 317 318 320 318 318 320 322 323 323
277 280 280 279 279 279 278 277 277 276 277 275 275 273 272 271 271 274 273 276 274 277 273 275 273 274 273 276 276 275 277 278 278 278 277 278 279 279 279 278 278 277 278 277 278 278 279 279 279 280 280 281 282 282 284 287 287 288 288 289 291 294 294 295 297 299 302 305 308 313 317 316 316 316 315 315 315 315 315 316 317 316 316 317 319 320
278 280 280 279 278 278 278 276 277 278 275 276 275 276 274 273 273 272 275 275 271 275 276 277 269 263 267 266 272 273 275 276 277 275 275 276 276 277 277 277 277 278 278 277 277 277 277 278 278 278 278 279 280 280 282 285 286 285 286 287 287 289 290 290 293 295 300 301 303 306 309 312 314 313 315 314 313 315 316 317 315 315 315 315 316 317
279 280 278 278 278 278 278 278 278 279 276 273 275 276 275 274 272 273 273 273 267 267 273 275 272 261 265 268 270 270 273 274 275 274 275 275 276 276 276 277 276 276 276 276 276 276 276 276 276 277 277 276 277 279 281 281 282 283 283 285 285 286 287 288 289 291 295 298 300 302 304 307 309 310 313 314 314 313 314 314 315 315 314 314 315 315
278 278 277 276 277 277 276 276 277 279 276 273 275 274 275 274 273 273 274 273 266 272 273 273 271 266 265 270 269 271 272 273 273 274 274 274 275 275 276 276 276 275 275 274 274 275 275 275 275 275 275 276 276 276 278 278 280 280 280 281 283 284 285 285 286 287 290 293 295 298 301 303 305 306 308 311 312 312 311 314 313 313 314 314 313 314
276 276 276 276 275 274 275 275 277 280 277 274 275 276 274 275 274 273 273 269 268 270 266 269 271 268 261 265 269 270 271 270 271 272 272 273 273 273 273 273 274 274 274 273 273 273 273 273 273 274 274 275 275 275 276 277 277 279 279 279 279 280 282 283 284 285 286 289 291 293 296 298 302 304 307 310 311 311 311 312 312 312 312 312 313 313
278 279 279 277 275 275 275 275 275 277 276 275 276 276 274 274 273 271 271 271 265 264 265 268 269 265 263 264 268 269 269 271 271 271 272 272 271 271 271 272 272 272 272 272 271 271 272 272 272 273 273 273 273 274 275 276 276 277 277 277 277 277 279 281 282 283 284 286 287 288 290 293 296 299 304 308 309 309 310 310 311 312 312 312 312 313
272 278 281 278 276 277 275 276 275 275 277 278 276 275 273 272 269 266 266 265 265 262 268 269 267 267 263 263 267 268 270 272 272 272 271 271 270 270 270 270 270 270 270 270 270 270 270 271 271 272 271 272 272 273 273 274 274 275 275 275 275 276 276 278 280 281 282 283 285 286 287 289 291 294 298 301 304 307 308 308 309 310 310 311 310 310
271 276 276 277 280 277 277 276 277 276 277 276 269 268 271 268 269 261 259 263 263 261 265 262 268 265 264 264 267 272 272 273 273 269 268 268 268 269 269 269 269 269 269 269 269 269 269 269 270 270 270 270 271 271 271 272 273 273 274 274 274 274 275 276 277 279 280 281 283 284 285 286 288 290 294 296 299 301 303 306 308 309 309 310 310 309
272 272 273 276 281 278 275 273 275 273 276 274 271 272 267 259 259 260 262 259 261 264 266 260 263 266 266 268 270 270 271 270 270 269 268 268 267 268 268 268 269 269 268 268 268 268 268 268 268 268 268 269 269 269 270 270 271 272 272 272 272 272 273 274 276 276 279 280 281 282 283 284 287 288 290 293 295 297 299 302 304 306 308 309 308 309
269 268 269 272 276 278 276 273 271 269 272 271 272 267 263 259 256 255 254 252 255 262 262 262 264 263 267 267 271 269 270 270 269 269 269 268 268 268 268 268 268 268 268 268 267 267 267 267 267 267 268 268 268 269 269 269 270 270 271 271 271 271 272 273 274 275 277 278 279 281 282 283 285 286 288 290 292 294 296 298 300 303 306 307 307 307
260 266 269 270 272 274 274 273 273 271 272 274 269 272 267 262 258 256 257 261 263 263 263 263 265 259 268 266 270 270 270 270 270 270 270 270 269 269 268 268 268 267 267 267 267 267 266 267 267 267 267 267 267 268 268 268 269 269 269 270 270 270 271 272 273 273 275 276 278 279 281 282 283 285 286 288 290 291 293 296 298 300 303 303 305 305
266 264 269 271 274 273 272 274 275 271 271 270 268 267 264 268 266 263 258 257 257 258 257 260 260 263 265 269 270 270 270 269 269 269 269 268 268 268 267 267 266 266 266 267 266 266 266 266 266 266 266 266 267 267 267 267 268 268 268 269 269 269 270 271 272 272 274 274 276 278 279 280 282 284 285 286 288 289 292 294 296 298 299 300 301 302
262 261 268 270 273 271 273 274 275 276 265 270 273 267 269 267 261 258 258 257 257 255 256 259 263 265 270 268 269 268 268 268 268 268 267 267 267 267 266 266 266 266 266 266 266 266 266 266 266 266 266 266 266 266 266 266 267 267 268 268 268 269 269 269 270 271 272 273 275 276 277 278 280 282 282 284 285 287 290 293 295 296 298 299 299 299
259 263 264 270 272 274 273 273 275 273 272 270 264 270 270 270 265 264 262 252 250 260 258 264 264 264 264 260 268 267 266 267 266 267 267 267 266 265 266 265 266 265 266 266 266 266 266 265 265 265 266 266 265 266 266 266 267 267 267 267 267 268 267 268 269 270 271 272 273 275 276 277 279 280 281 283 284 286 288 291 293 294 295 297 298 299
264 260 264 265 268 270 273 274 274 275 275 272 268 267 270 263 264 260 260 257 254 256 252 256 264 262 267 264 263 265 265 265 265 266 266 265 265 265 265 265 265 266 265 265 265 265 265 265 265 265 265 265 265 266 266 266 266 266 267 267 267 267 267 268 268 269 270 271 273 274 275 276 277 279 280 282 283 285 286 288 290 292 294 296 297 298
263 259 261 264 268 268 267 267 264 267 271 270 272 269 265 265 260 262 264 258 258 258 262 255 264 259 267 267 264 267 266 266 265 265 265 265 265 265 265 265 265 265 264 264 264 265 265 265 264 264 264 264 264 265 265 265 265 265 266 266 266 267 267 267 267 268 268 270 271 273 274 275 276 277 278 280 281 283 284 286 288 290 292 294 296 297
265 264 257 263 263 266 263 264 260 262 261 265 265 257 261 258 265 264 260 257 260 254 258 259 257 261 265 269 267 266 266 266 265 264 265 265 265 265 265 264 264 264 264 264 264 264 264 264 264 264 264 264 265 265 264 264 264 265 265 265 265 265 265 266 266 267 267 269 270 272 272 273 274 275 276 277 280 282 283 284 286 288 290 293 294 296
257 258 258 257 260 255 264 263 263 263 264 264 265 264 265 261 261 261 262 262 255 261 258 257 261 262 264 268 267 265 266 266 266 265 264 264 264 264 265 265 264 264 264 264 264 264 264 264 264 264 264 264 264 263 263 264 264 264 264 264 264 265 265 265 265 266 266 268 269 270 272 272 273 274 275 275 277 280 281 283 285 287 289 291 293 294
265 259 255 256 259 264 266 267 266 267 266 264 266 264 268 264 262 260 261 262 256 259 259 252 258 257 267 266 266 266 265 265 265 265 265 264 264 264 264 265 265 264 264 263 263 263 263 263 263 263 263 263 263 263 263 263 263 263 263 264 264 264 264 265 265 266 266 267 268 269 271 271 272 273 273 274 275 277 279 281 284 286 287 289 291 293
272 260 258 259 256 259 262 265 267 267 268 267 267 266 266 264 265 263 262 262 255 257 255 261 258 259 264 268 266 266 266 265 266 265 264 264 264 264 264 264 264 264 264 263 263 263 263 263 263 262 262 262 262 262 262 262 262 263 263 263 263 263 263 264 264 265 265 266 267 269 270 270 271 271 272 272 274 275 277 280 283 285 286 288 290 291
255 259 255 252 247 250 249 257 258 262 266 263 263 264 263 265 264 263 264 263 256 259 260 260 261 261 264 268 267 266 266 265 265 265 265 264 264 264 264 264 264 263 263 262 262 262 262 262 261 261 261 261 261 261 261 261 262 262 262 262 262 263 263 263 264 264 264 265 266 268 268 269 269 269 270 271 273 273 275 278 282 284 285 287 288 289
255 256 250 249 249 250 246 244 246 250 254 260 260 263 263 262 263 262 257 262 256 263 259 259 256 262 265 266 266 266 265 264 265 265 265 265 264 264 264 263 263 263 262 262 261 261 261 261 261 261 261 261 260 260 260 261 261 261 261 261 262 262 263 262 263 263 263 264 265 266 267 268 268 268 269 270 271 272 274 277 280 283 284 285 286 288
252 251 250 253 253 253 253 250 256 263 257 253 257 259 261 263 262 262 262 255 254 260 252 257 262 261 260 264 264 265 265 264 264 264 264 264 264 264 263 263 263 262 261 261 261 260 261 260 260 260 260 260 260 260 259 260 260 260 260 260 261 262 262 262 262 262 262 264 265 265 266 267 267 267 268 269 270 272 273 275 278 282 283 284 285 285
250 251 253 253 253 255 256 255 259 261 258 259 259 259 261 260 261 260 258 255 262 256 254 261 258 260 261 265 264 264 264 264 264 263 263 263 263 262 262 262 263 261 261 260 260 259 259 259 259 259 259 259 259 259 259 260 260 259 260 259 260 261 261 261 261 261 262 263 263 264 265 266 266 267 267 268 269 271 272 274 276 280 283 283 283 284
254 251 251 253 252 254 255 254 255 256 257 259 259 259 259 261 259 256 256 259 258 256 256 259 257 259 262 264 265 263 264 263 263 263 263 263 262 262 261 260 260 259 259 259 259 258 258 258 258 258 258 258 258 258 258 258 259 259 259 259 260 260 260 261 260 260 261 262 262 263 264 265 266 266 266 267 268 269 271 272 274 278 282 283 283 283
251 248 248 252 250 252 253 254 254 255 257 256 253 258 259 259 259 259 257 259 259 256 259 259 260 260 263 263 263 261 262 263 262 263 262 261 260 260 259 258 258 257 257 257 257 257 257 257 257 257 258 257 257 257 257 257 257 257 257 258 259 259 259 260 259 260 260 260 261 262 263 264 264 265 265 266 267 268 269 271 272 275 281 282 282 282
257 251 261 254 249 251 250 254 255 257 254 252 257 256 258 255 256 258 259 259 259 259 260 260 258 258 260 261 260 261 261 262 261 260 260 259 258 258 258 257 257 256 257 257 257 256 257 257 257 257 256 256 256 256 256 256 256 257 257 257 258 258 259 259 258 259 259 259 261 261 262 263 263 263 263 265 266 267 268 269 271 274 280 282 281 281
256 252 252 252 252 248 248 252 256 253 254 252 252 255 255 255 253 256 256 258 258 256 259 259 256 256 260 257 260 259 259 260 259 259 258 258 258 257 255 256 256 255 255 256 256 256 256 256 256 256 256 256 256 256 256 256 256 256 255 257 257 257 258 258 258 258 258 259 260 260 261 262 262 262 262 263 264 265 267 269 270 273 279 281 281 282
251 251 251 249 250 248 249 249 251 250 250 251 253 255 257 258 258 259 259 260 259 260 257 253 256 259 256 259 256 257 256 258 257 256 257 258 257 257 255 255 254 254 255 255 255 255 255 255 256 256 255 255 255 256 256 256 255 255 256 256 256 257 257 257 258 258 258 259 259 259 260 260 260 260 261 262 263 264 266 267 270 272 277 280 281 281
251 251 250 250 250 248 250 249 249 247 246 248 255 257 260 258 259 257 258 259 260 258 259 259 258 254 255 256 256 254 254 254 256 256 258 257 256 256 255 254 253 254 254 254 255 255 255 255 255 256 256 255 256 257 256 256 255 255 256 256 256 256 256 257 257 257 257 258 258 259 259 259 259 259 260 261 262 263 265 267 269 271 274 280 281 281
255 254 251 250 250 248 248 250 249 245 247 254 256 259 257 256 257 258 259 256 258 257 257 256 256 255 256 256 255 254 255 256 256 255 256 256 255 254 253 253 253 253 253 253 254 254 254 254 254 254 254 254 256 255 255 254 254 255 255 255 256 256 256 256 256 257 257 257 257 258 258 258 258 258 259 260 261 262 264 266 268 270 272 277 280 280
252 253 250 251 245 247 247 246 238 240 246 253 256 257 259 258 258 257 255 258 258 258 258 256 256 255 255 254 254 255 255 255 256 256 255 255 254 254 252 252 253 253 252 253 254 253 253 253 253 253 253 255 255 254 254 253 255 254 254 255 255 255 256 256 256 256 256 256 257 257 258 257 257 257 258 259 260 261 263 265 267 269 271 274 279 280
257 254 252 249 246 244 242 242 248 248 252 254 253 257 258 257 257 255 250 256 254 255 257 256 255 253 253 253 254 254 255 255 254 253 254 253 254 252 253 251 253 252 253 253 254 253 254 254 253 253 254 254 254 253 253 254 254 253 253 254 254 255 255 255 255 255 255 256 256 257 257 256 256 256 257 258 259 260 262 264 266 268 271 272 277 280
259 253 250 249 247 246 244 240 241 243 242 246 253 257 257 257 257 256 254 255 253 252 256 256 254 253 253 254 253 254 254 254 255 252 252 252 253 252 253 252 253 253 253 253 253 253 253 253 253 254 253 252 252 252 253 254 253 253 253 253 254 254 254 254 254 255 255 255 256 256 256 256 256 256 257 258 258 259 261 264 266 267 270 271 274 278
257 257 254 253 251 248 247 242 239 238 244 251 256 257 257 256 257 256 250 248 254 252 255 254 253 253 252 253 253 254 252 252 253 252 252 251 252 253 251 252 252 252 252 252 252 251 252 252 253 253 252 251 251 252 253 253 252 252 252 253 253 253 253 253 254 254 254 255 255 255 255 256 256 256 256 257 258 260 261 263 265 267 269 270 273 277
251 248 252 250 247 243 242 242 243 240 243 250 255 256 257 257 258 257 245 243 251 251 253 253 252 253 252 252 252 251 253 251 255 253 253 251 253 252 252 251 251 251 251 251 251 251 252 253 251 251 250 250 250 252 252 252 252 251 251 252 252 252 252 252 254 255 255 255 255 255 255 255 255 256 256 257 258 260 261 264 265 267 269 270 273 276
245 247 248 250 245 250 254 245 239 246 251 255 255 256 257 258 255 246 244 250 252 253 253 254 253 253 253 252 253 249 252 253 252 252 253 252 252 251 251 252 251 250 250 250 250 254 251 251 251 250 250 250 251 251 251 251 250 250 251 251 251 251 252 253 254 254 254 254 254 254 254 255 255 255 256 257 258 260 262 264 265 267 268 270 272 276
241 241 245 242 242 244 245 245 247 246 249 253 255 256 256 254 244 246 254 247 252 253 255 254 253 254 253 252 252 253 253 251 252 252 252 251 251 250 251 250 250 250 250 251 252 252 251 251 250 250 250 250 251 251 250 250 250 250 250 250 250 251 253 253 253 253 253 253 253 254 254 254 254 255 256 257 259 260 261 264 266 267 268 270 272 275
245 244 241 242 241 237 238 241 241 242 246 253 254 254 253 250 252 252 249 250 254 254 255 255 254 254 253 252 252 251 251 251 251 251 251 251 251 250 250 250 249 249 249 249 249 250 251 249 249 249 250 250 250 250 250 250 249 250 250 249 250 252 252 252 253 253 253 253 252 253 253 253 254 255 256 257 259 260 261 263 265 266 268 270 272 275
251 247 241 240 247 244 240 240 243 250 249 253 257 251 252 253 251 250 252 252 253 253 255 255 255 254 253 252 252 251 250 250 250 250 251 250 251 251 250 249 249 249 249 249 250 249 250 249 249 249 249 249 250 249 250 250 249 249 249 249 251 252 252 252 252 252 252 252 252 252 252 253 254 255 256 257 258 260 261 263 264 266 268 270 273 274
253 251 247 249 250 249 246 248 252 250 250 252 251 252 250 251 250 251 253 254 253 252 254 254 254 253 253 252 252 251 250 251 250 251 249 250 250 249 249 249 248 248 248 248 248 249 249 248 248 248 248 249 249 249 249 249 248 248 248 250 252 251 252 252 252 251 251 251 251 251 252 253 253 254 255 257 259 260 262 264 265 267 269 272 273 274
247 250 250 248 252 250 253 255 251 249 250 250 251 251 251 250 250 250 251 252 254 254 253 252 252 252 252 251 250 249 249 250 249 249 248 249 249 249 249 248 247 248 247 247 248 248 249 248 248 248 247 248 249 249 249 248 248 247 248 251 251 251 252 251 251 250 250 250 250 251 252 252 253 254 256 259 261 262 264 264 265 267 269 272 273 273
248 249 248 249 246 249 250 249 250 253 252 251 250 251 250 250 252 250 250 251 251 251 250 250 249 249 250 248 247 248 248 247 247 248 247 247 247 248 247 247 247 247 247 247 247 248 248 248 247 247 247 247 248 249 249 248 248 249 250 250 251 251 250 249 249 249 249 250 250 251 251 251 253 255 258 260 261 263 264 266 267 268 269 272 272 272
253 250 252 250 247 251 253 252 250 249 252 252 252 252 252 251 250 251 252 251 249 248 247 248 248 247 248 247 248 247 247 247 247 247 247 247 247 247 247 247 247 247 247 247 247 248 247 247 247 247 247 247 248 249 249 248 248 249 249 250 250 249 249 249 249 249 249 249 250 250 251 253 256 258 258 259 261 262 264 267 269 269 270 270 271 270
249 254 247 247 248 251 252 254 253 251 250 251 252 252 253 252 250 248 247 247 246 247 247 246 246 246 247 248 247 246 245 246 246 247 246 246 246 247 247 247 247 247 247 247 247 247 246 247 247 247 247 247 248 249 248 248 248 249 249 250 250 249 248 249 249 249 248 249 249 250 253 254 256 257 258 259 260 262 264 266 268 268 268 269 270 270
250 252 248 249 248 250 250 253 248 249 250 252 251 252 252 252 251 250 247 246 245 245 244 244 245 244 244 244 245 245 244 245 246 245 245 245 246 246 247 247 246 246 246 247 247 247 247 247 247 247 247 248 248 248 249 249 249 250 250 250 249 248 248 249 249 248 248 249 250 251 253 255 256 257 258 259 260 261 263 268 271 270 269 269 271 272
252 255 253 252 250 251 254 253 251 251 251 253 253 252 251 250 250 248 247 247 246 245 244 245 246 244 245 246 244 245 244 244 245 245 245 245 246 246 246 245 246 246 246 247 247 247 247 247 248 247 246 247 248 248 249 249 250 250 250 250 248 249 249 248 248 249 248 249 250 252 254 255 256 257 258 259 259 260 262 264 266 271 273 272 271 272
Wind_Speed
2 6 7 12 10 9 8 12 5 1 1 4 4 4 6 7 4 2 3 3 0 1 7 7 5 6 11 8 4 1 5 5 9 10 9 8 9 11 11 11 10 12 12 9 12 15 16 17 16 14 15 15 17 19 17 17 16 15 12 13 13 11 11 10 10 8 6 5 3 2 2 1 0 1 1 2 1 1 2 2 2 2 4 5 7 10
3 6 12 5 3 9 8 2 3 2 5 4 5 6 7 5 7 4 1 2 1 4 2 1 4 10 11 7 4 2 3 7 8 8 9 8 10 9 10 12 12 8 8 15 17 18 18 17 18 16 15 18 20 17 18 18 15 14 15 15 12 11 11 12 10 8 7 7 7 4 3 2 1 1 1 1 1 1 2 1 1 1 2 1 2 3
3 12 3 3 2 3 4 4 3 4 2 2 3 4 3 6 2 5 1 1 1 2 7 1 5 9 10 6 2 1 4 5 7 9 5 9 11 11 11 11 12 13 14 14 15 16 16 18 19 16 16 16 14 14 16 15 17 18 16 14 12 12 12 11 12 10 9 7 6 5 4 3 1 2 2 1 1 1 1 1 1 1 1 1 2 2
3 7 6 3 6 5 1 3 5 3 1 3 3 3 7 3 6 4 1 0 1 2 2 3 3 7 6 1 3 6 7 6 8 12 13 12 13 14 14 12 12 14 13 14 14 14 15 14 14 16 16 14 14 15 17 19 18 15 16 15 14 13 12 12 13 11 10 9 7 6 4 4 3 2 2 2 1 2 1 0 1 1 0 0 1 2
5 1 1 5 6 7 4 3 6 6 8 3 4 4 3 2 3 3 3 1 1 0 2 2 2 5 4 4 4 4 5 13 9 10 14 13 12 9 9 13 14 14 13 13 14 15 15 17 17 15 14 13 15 15 16 16 16 12 15 16 15 13 13 13 15 14 11 11 12 10 7 5 5 3 3 3 4 3 2 2 3 2 2 2 2 1
10 2 3 4 2 3 5 3 7 8 7 5 5 8 6 6 7 1 1 4 2 3 2 3 1 4 3 3 3 2 7 10 9 14 14 13 12 12 14 13 12 12 11 13 13 13 12 13 13 17 18 17 15 16 15 14 14 15 14 15 15 12 13 14 15 16 12 11 11 11 10 10 7 6 6 7 7 6 5 4 2 2 3 3 3 3
5 1 1 4 5 6 6 6 5 8 8 3 7 9 5 5 5 6 5 5 1 3 2 1 9 4 4 3 4 1 8 10 9 14 12 12 12 12 11 11 12 12 11 11 12 13 16 16 16 16 17 16 16 15 14 13 14 17 15 14 14 13 11 14 15 17 13 13 12 12 10 9 8 8 5 5 3 4 4 3 4 4 2 2 3 3
1 1 2 2 4 4 4 6 3 10 6 5 1 3 7 7 7 7 8 8 3 1 1 1 2 4 2 1 2 4 11 8 11 12 12 11 12 12 11 12 12 12 12 11 12 14 14 15 15 15 15 14 14 13 13 14 14 17 17 16 16 12 12 13 14 15 14 12 12 12 12 10 9 9 9 8 7 4 3 5 5 3 4 5 3 4
1 1 1 2 2 3 6 3 3 12 7 2 1 3 5 5 4 6 6 4 0 1 5 1 1 0 4 4 1 3 7 8 10 10 10 11 11 11 12 12 12 12 12 12 12 14 15 15 14 14 15 14 14 14 14 14 14 14 14 15 16 15 14 14 17 15 15 13 12 11 11 12 10 10 8 6 6 6 6 7 6 5 4 4 4 2
1 1 0 2 2 4 2 2 1 6 6 1 5 8 7 7 8 3 3 4 1 3 8 7 4 3 5 3 0 2 7 4 5 7 8 10 10 11 11 11 11 10 10 10 12 11 12 12 12 12 11 13 14 13 13 13 13 14 14 16 17 18 15 14 16 15 15 15 13 12 14 15 12 12 11 9 9 9 9 8 8 7 7 6 5 5
1 5 3 1 1 0 2 1 1 1 1 7 3 9 7 8 4 3 6 3 3 3 12 6 5 5 4 3 1 1 2 3 5 5 6 8 10 11 10 10 10 9 10 10 10 10 9 9 10 12 13 13 14 13 14 14 15 14 15 16 17 16 14 16 16 16 16 14 13 12 13 13 14 15 12 12 12 10 10 9 8 8 7 6 6 6
4 1 1 1 2 1 2 3 5 2 3 3 2 3 6 5 7 4 3 3 4 8 5 2 7 4 8 2 1 4 6 5 6 6 6 8 9 7 7 7 9 9 10 9 10 11 12 12 13 13 16 16 15 15 17 15 15 15 14 16 17 17 18 16 16 16 15 13 13 12 13 14 12 13 11 12 12 12 12 10 9 7 7 7 6 5
2 3 1 3 2 4 0 5 3 3 2 5 5 6 6 3 5 3 1 2 6 10 1 2 3 2 7 2 4 6 6 8 7 6 6 5 5 6 7 9 8 9 10 10 11 11 13 14 15 16 16 16 18 16 17 16 15 14 14 18 18 18 19 16 16 16 15 14 14 14 14 12 12 12 12 11 11 11 10 10 11 10 7 7 7 7
4 2 3 3 4 4 1 5 1 1 1 3 4 5 5 1 1 4 4 1 5 6 3 2 2 0 0 2 5 8 7 8 7 6 5 5 5 5 7 7 8 9 10 10 10 11 12 13 13 13 14 14 13 16 15 15 15 14 14 16 18 16 17 17 16 16 16 15 13 13 13 12 11 12 11 10 11 11 10 10 10 10 9 8 7 7
1 4 3 3 2 4 3 1 3 3 5 7 1 8 8 6 5 5 5 9 9 5 1 4 4 7 7 1 9 9 8 7 5 5 4 4 4 4 5 6 8 10 11 10 10 11 12 13 14 13 13 13 13 15 14 14 15 14 15 16 19 18 18 17 17 15 17 15 15 14 13 12 11 11 11 10 9 10 12 10 10 10 9 8 8 7
3 4 2 2 3 2 2 1 1 2 2 2 2 5 2 9 3 5 4 3 1 2 1 1 4 2 2 7 6 8 8 6 5 5 4 5 5 5 6 9 9 10 10 10 10 11 13 12 13 12 12 13 13 14 13 15 14 15 15 16 16 15 16 17 18 16 15 15 13 15 16 14 13 11 10 10 11 11 10 10 10 10 9 8 8 7
3 2 1 7 1 3 2 3 1 1 3 2 6 4 4 2 4 3 2 0 3 4 6 3 2 0 5 4 3 7 7 5 4 4 5 6 6 6 8 8 9 9 9 10 10 10 12 12 13 12 13 12 13 13 14 15 14 15 15 16 17 17 16 16 16 14 15 14 14 15 16 15 15 15 14 12 13 13 12 10 10 9 10 9 8 8
1 8 4 3 3 1 1 0 1 5 1 5 1 5 1 1 4 3 6 3 1 7 6 7 11 4 8 4 13 8 6 6 4 4 5 6 6 8 8 8 9 9 8 8 8 9 10 11 12 12 11 12 13 13 14 15 13 12 12 14 15 17 18 18 17 16 15 16 15 15 17 16 14 13 14 13 13 12 11 12 11 11 11 11 9 8
1 6 3 2 3 8 5 1 3 1 3 2 2 2 2 5 5 2 2 5 1 5 4 1 2 1 11 6 9 12 11 8 5 4 5 7 7 7 7 8 7 8 8 9 9 10 10 11 12 12 12 12 12 12 12 12 12 12 13 14 12 15 15 15 13 14 12 13 11 12 14 15 14 13 13 13 13 12 12 13 13 12 11 11 11 10
1 2 6 2 3 5 4 4 2 5 9 1 1 1 1 4 2 3 6 2 4 7 4 6 8 5 3 2 14 11 10 8 6 5 6 6 6 5 6 7 7 8 8 9 9 10 10 10 11 12 13 13 14 14 14 14 12 14 13 14 15 14 13 14 16 15 14 14 12 14 15 15 14 13 13 13 12 12 12 13 13 13 13 12 10 10
2 3 4 3 6 2 1 3 1 3 3 6 7 4 3 1 3 3 3 4 5 4 6 5 6 2 3 1 11 11 10 8 7 6 4 4 5 5 6 6 7 7 8 9 9 10 10 10 11 11 11 11 11 10 12 12 14 13 14 14 15 16 17 17 15 14 14 13 13 16 16 16 15 16 14 14 14 12 12 12 12 12 12 11 10 10
1 2 4 3 7 3 2 1 3 0 2 1 1 1 1 3 3 5 10 3 1 2 7 5 10 5 2 4 8 11 8 8 7 6 5 4 4 5 5 6 7 7 8 9 9 10 10 10 11 10 10 10 11 11 14 13 12 14 15 14 15 14 14 15 16 15 15 14 12 16 16 16 14 14 14 15 14 13 14 13 12 11 12 12 11 9
2 0 1 6 3 5 0 2 1 3 1 2 3 3 4 2 2 1 7 6 3 4 2 2 1 3 6 7 8 9 8 7 6 5 4 4 4 4 5 5 6 7 7 9 9 9 9 9 11 10 12 12 12 12 13 13 13 13 14 14 14 14 15 15 14 13 13 14 14 16 16 15 15 15 16 16 14 15 14 14 13 12 12 12 11 10
4 1 3 5 4 5 3 2 0 3 0 2 2 4 4 3 3 1 2 1 3 5 3 4 3 2 3 4 7 8 8 6 5 5 3 2 3 4 5 6 7 8 8 9 8 9 9 9 10 10 13 13 13 13 13 12 12 12 13 13 14 14 16 16 15 14 13 12 13 14 15 15 16 17 16 16 14 16 15 14 13 12 12 12 10 10
4 3 7 4 6 6 3 3 2 2 4 2 1 3 2 3 4 4 2 3 2 5 4 2 10 5 4 7 6 7 7 6 6 5 4 3 3 3 5 5 6 7 8 9 10 10 11 11 13 12 12 12 13 12 12 13 12 12 13 12 14 14 14 15 14 15 16 15 15 13 13 15 15 16 18 18 15 16 16 14 13 11 12 12 11 10
3 3 2 2 5 7 4 1 3 4 3 2 0 2 1 6 7 5 3 3 3 2 8 0 1 4 7 6 5 5 5 5 5 4 4 4 4 3 4 5 6 7 8 10 10 11 12 11 10 12 13 12 12 12 13 13 12 12 12 12 12 13 13 14 13 15 16 15 16 15 16 14 13 15 17 18 18 18 16 15 13 12 11 10 11 10
1 1 2 3 5 7 6 3 4 2 3 2 4 4 6 1 1 4 2 4 3 3 2 5 4 5 1 5 4 4 3 3 4 3 3 3 4 4 4 5 5 6 8 9 9 9 10 11 13 13 12 12 13 13 13 13 13 13 13 13 13 11 11 12 11 13 13 14 14 15 16 16 15 14 13 14 16 16 16 16 15 13 12 10 9 8
2 1 3 4 7 6 3 5 1 3 3 5 6 9 3 1 2 2 4 6 1 7 8 2 5 3 5 6 3 4 2 3 3 3 2 2 3 4 4 4 5 6 7 8 9 11 11 11 12 13 13 14 13 14 14 12 12 13 13 14 13 12 12 11 12 13 12 12 12 12 14 14 15 15 14 13 13 14 15 15 15 14 12 10 8 7
1 1 7 7 9 4 2 4 3 2 3 5 5 4 7 7 1 1 5 6 1 5 9 3 3 6 9 2 1 5 2 2 3 2 3 3 4 5 6 6 5 6 7 8 9 10 11 12 12 13 13 13 14 15 15 14 14 14 14 13 13 13 14 14 13 13 12 12 12 12 13 13 13 13 15 15 14 15 14 14 14 15 12 10 8 6
4 4 3 2 4 6 5 3 3 2 4 2 4 6 6 4 7 6 5 2 2 4 4 6 7 11 7 1 5 4 4 4 4 4 3 4 4 6 7 8 8 8 8 8 8 8 9 10 11 12 13 13 14 15 15 13 13 14 15 15 14 14 14 14 14 14 13 12 12 13 13 12 12 13 14 14 15 15 15 15 15 14 12 9 8 7
6 5 6 2 3 6 5 1 2 4 1 2 5 4 4 4 4 4 1 2 4 4 6 7 8 9 0 5 6 5 3 3 4 3 4 3 3 2 4 6 8 9 10 10 10 10 9 9 10 10 11 13 14 15 13 12 13 13 13 12 13 13 14 13 14 13 14 14 13 13 13 13 13 13 14 13 13 14 15 16 15 15 13 9 7 7
4 4 3 2 4 4 2 2 4 2 0 3 5 6 6 5 5 3 3 6 4 6 8 7 5 5 1 2 4 3 3 3 2 2 2 1 3 2 1 2 5 7 9 10 10 11 11 10 11 11 11 12 12 13 13 14 15 15 14 14 13 14 13 13 13 14 14 13 14 14 13 12 14 14 14 14 14 14 14 14 15 15 14 10 9 7
0 1 2 2 4 4 6 1 4 3 5 8 11 9 12 8 5 5 5 5 5 6 6 4 9 1 4 4 3 2 3 0 2 2 1 1 1 1 1 2 4 5 7 8 9 9 10 10 11 12 11 11 10 11 12 13 14 15 16 16 15 15 14 14 13 14 14 14 14 15 13 13 14 14 14 14 15 14 13 13 14 14 15 12 9 7
1 1 1 1 2 1 4 5 2 4 7 10 1 3 2 6 6 7 8 7 4 2 4 1 2 3 2 3 4 4 3 2 2 3 1 2 2 1 1 4 5 7 8 8 8 8 8 8 8 9 10 11 12 11 12 12 12 13 13 13 14 14 14 14 14 13 13 14 14 14 13 13 14 15 14 14 14 13 14 13 13 14 14 12 8 7
1 2 2 1 0 3 3 4 6 8 12 1 5 5 0 2 1 7 9 5 8 3 2 4 5 4 4 3 2 1 1 2 1 4 4 3 4 2 2 4 6 8 9 10 10 10 11 11 11 10 10 10 10 11 12 11 11 12 12 12 13 12 13 12 13 13 13 13 14 13 13 14 14 15 15 14 14 13 13 13 13 14 13 13 9 7
3 3 2 0 1 1 2 2 0 7 3 6 11 8 5 1 3 1 5 7 8 7 6 4 3 4 4 3 1 1 2 4 1 1 6 5 5 3 1 2 5 6 8 8 10 11 12 13 14 14 13 11 11 10 10 11 12 12 13 13 12 13 12 12 12 13 12 13 13 13 13 14 15 15 15 14 14 14 14 13 13 13 13 14 11 7
4 2 4 2 1 2 2 3 10 6 12 7 4 2 1 3 1 2 5 6 1 2 4 4 5 3 3 1 2 2 4 3 2 2 5 4 3 1 1 2 3 4 5 7 8 10 10 11 12 13 13 11 11 11 11 11 11 12 13 12 12 12 12 12 12 12 13 13 13 13 13 13 14 15 15 14 14 14 14 14 14 13 11 13 13 8
4 5 3 3 3 6 2 4 4 3 5 6 6 1 1 1 0 2 3 7 0 2 1 5 7 6 3 1 1 4 3 2 6 1 4 1 2 0 1 2 3 3 4 5 7 7 7 8 9 10 10 12 12 11 11 11 12 13 12 12 12 13 13 12 12 12 13 13 13 14 14 14 13 15 15 14 14 14 14 13 12 12 10 11 14 11
4 2 3 6 2 4 1 2 3 3 8 6 2 2 1 1 3 1 5 7 0 1 1 4 4 4 4 3 1 0 2 2 5 1 3 3 2 2 3 3 2 2 4 5 7 10 11 9 7 8 9 10 11 11 10 11 13 12 12 12 12 11 12 12 12 12 13 14 14 14 14 13 13 14 15 15 15 13 15 14 13 12 11 11 12 11
5 1 1 0 2 2 2 1 5 5 4 1 5 2 3 1 2 1 4 5 1 3 0 3 4 5 3 3 3 2 1 3 5 1 2 1 3 2 4 6 5 6 4 4 6 8 10 8 10 9 8 10 11 11 10 10 10 11 11 11 10 11 12 12 12 13 13 14 14 13 13 13 14 14 13 15 15 14 14 13 12 13 12 11 11 10
1 1 1 8 3 7 8 5 3 7 5 4 5 3 2 2 2 1 7 5 2 5 2 1 2 2 3 4 4 2 3 1 0 0 2 3 4 4 3 3 4 4 5 7 8 11 8 8 8 9 10 10 11 10 10 9 10 9 9 10 10 10 11 11 11 13 14 13 13 14 14 13 12 15 15 14 14 14 14 13 12 13 12 11 11 9
1 1 1 3 2 5 4 4 9 6 7 3 0 3 2 1 1 8 4 0 4 3 4 3 2 2 3 4 3 5 2 1 1 2 2 3 4 5 4 5 5 4 4 5 9 11 10 10 9 9 9 10 11 11 10 10 10 10 10 9 10 11 10 9 10 11 12 14 14 14 14 14 13 12 13 13 14 15 15 13 12 13 12 10 11 10
5 3 4 4 2 2 1 1 3 4 3 3 8 2 0 3 5 2 2 1 0 1 4 3 3 2 2 3 3 3 4 4 4 5 4 4 4 5 6 6 7 8 9 8 9 8 10 10 11 11 11 11 10 10 10 11 12 12 11 11 13 12 9 10 10 11 11 12 13 13 14 14 14 13 11 12 13 15 16 14 13 13 12 12 12 10
3 1 2 4 6 3 4 4 6 8 2 6 6 4 5 2 1 5 2 2 2 0 2 3 3 2 2 2 2 3 3 5 5 4 5 4 5 5 6 6 6 8 9 7 8 9 9 10 10 11 11 11 10 9 9 9 11 11 12 13 13 10 10 10 10 10 11 11 12 13 12 13 14 13 13 14 14 14 15 15 13 12 11 11 10 8
5 5 5 3 2 5 6 7 6 3 3 2 0 1 1 1 1 1 0 0 3 3 1 1 3 3 1 2 2 3 5 3 4 3 5 8 7 8 7 7 6 8 9 10 10 9 8 9 12 12 12 11 11 10 9 8 10 11 12 13 11 11 12 11 11 11 11 12 12 12 12 12 13 13 13 14 13 14 13 14 13 12 11 10 9 8
1 1 0 1 6 3 6 6 1 1 2 4 0 0 3 1 1 1 2 1 1 1 2 2 0 1 0 0 2 3 4 4 4 5 6 7 8 9 7 6 6 6 7 8 8 9 9 9 10 11 12 12 11 10 8 8 8 11 13 11 10 11 11 11 11 12 13 13 12 12 13 14 14 14 13 14 12 13 13 13 13 11 11 9 8 8
2 0 1 3 2 3 7 3 1 3 1 3 3 0 0 1 2 3 2 2 2 2 1 1 0 0 1 1 3 5 5 3 5 6 5 6 7 8 7 8 8 7 8 9 9 9 10 9 10 11 12 13 12 10 10 8 9 10 11 11 11 10 9 8 10 12 12 12 12 12 12 13 11 12 12 12 12 11 12 12 11 11 10 9 8 6
4 3 0 5 2 5 9 1 3 3 3 3 4 5 4 5 3 3 1 1 2 1 1 1 1 1 1 2 3 3 4 3 5 7 6 6 7 7 8 8 9 9 8 7 9 8 9 9 10 11 12 13 12 10 10 10 10 11 11 11 9 8 7 8 10 11 11 13 12 11 11 11 16 15 11 12 11 11 11 10 9 9 8 8 7 7
1 2 5 2 3 7 7 8 5 3 6 7 5 4 3 4 6 3 2 3 2 2 1 1 1 2 2 3 1 2 4 5 5 6 6 6 7 7 8 8 8 9 9 10 9 8 9 9 10 11 12 13 11 10 10 10 10 10 11 10 8 6 7 10 11 11 11 11 10 10 10 11 11 11 11 12 12 10 10 10 7 4 2 3 1 3
2 7 2 1 7 10 9 7 2 4 6 1 4 7 6 3 5 5 3 3 3 3 2 3 4 2 3 3 3 3 5 7 6 4 6 6 7 7 8 9 9 9 10 8 8 8 9 9 9 11 12 12 10 10 10 11 11 10 9 8 6 5 9 11 10 10 10 9 9 10 10 9 9 10 10 10 10 10 11 15 6 4 1 4 8 10
7 9 5 6 5 9 1 1 2 0 2 1 0 0 3 4 4 5 7 5 4 4 3 2 5 4 4 5 3 4 5 7 8 4 7 7 8 7 7 8 9 10 10 9 9 10 9 10 10 9 10 11 10 10 10 11 11 10 9 7 5 6 9 9 9 9 9 9 9 11 11 9 9 10 9 9 9 7 8 8 8 9 8 10 11 11
Wind_Direction
110 169 191 209 208 200 206 210 208 138 156 159 142 166 202 199 266 289 279 256 264 112 225 219 241 248 255 259 274 337 7 21 15 19 38 34 35 33 29 33 30 38 32 11 25 27 24 22 19 20 21 18 27 26 20 25 24 24 22 30 28 16 20 21 5 357 331 334 337 349 4 13 82 184 190 253 253 241 212 193 196 186 207 207 216 210
89 203 230 212 183 201 210 161 99 70 46 135 176 184 225 187 227 234 188 6 307 168 301 199 211 249 258 271 270 26 32 31 32 30 31 39 46 42 38 37 37 32 25 21 23 17 20 19 16 18 20 19 23 15 20 22 16 19 22 27 21 18 19 19 11 351 352 349 338 313 284 305 284 191 178 248 261 290 295 290 325 337 344 328 221 229
192 222 232 193 182 127 127 151 159 209 159 48 148 194 219 251 257 283 265 299 305 139 256 95 195 249 256 261 312 57 84 63 44 61 44 48 48 43 36 36 33 31 26 23 23 20 20 20 20 21 20 20 17 14 22 18 18 18 19 16 18 18 16 15 9 5 352 334 339 338 337 327 324 59 45 54 55 39 34 360 7 18 24 292 269 229
230 266 240 176 130 121 67 138 179 166 114 149 92 115 209 232 148 273 266 62 352 132 280 179 199 277 287 304 46 30 74 81 60 63 55 46 53 48 44 39 37 34 24 24 15 16 18 19 18 18 16 9 11 14 15 18 16 15 14 9 9 15 15 13 9 2 352 346 342 1 345 6 344 349 356 43 49 50 64 30 316 52 70 340 282 292
195 164 57 138 161 154 166 177 160 183 228 218 188 190 167 144 246 157 219 107 338 339 91 84 1 309 281 256 90 37 65 65 35 50 48 42 47 50 49 45 40 39 30 24 18 15 17 18 17 12 8 7 16 12 10 15 16 13 10 7 5 11 13 10 7 5 357 2 8 360 11 35 20 19 10 13 359 17 22 342 12 358 4 338 297 303
279 277 122 93 138 172 145 161 204 161 231 234 230 201 190 183 177 189 125 118 35 252 292 176 342 289 310 278 156 306 38 51 33 49 39 36 33 32 38 38 35 40 38 34 28 19 17 19 10 15 14 15 13 15 6 5 10 8 5 6 5 8 12 7 5 4 5 14 14 9 14 13 17 10 15 22 357 349 354 343 319 43 14 353 340 335
221 352 110 165 161 189 194 199 202 173 200 172 255 182 191 171 151 140 145 94 198 191 277 30 184 268 331 20 43 75 83 66 47 48 44 39 36 39 40 37 34 31 25 26 27 22 21 15 14 13 16 14 14 9 4 4 7 8 6 3 6 6 7 9 5 5 6 14 15 16 13 11 12 5 5 353 350 351 328 316 2 354 344 22 353 338
78 353 47 83 132 151 182 231 214 172 155 225 286 168 148 128 145 175 158 178 197 276 339 64 135 186 283 281 109 92 81 56 45 40 40 39 38 37 36 31 32 29 28 23 23 23 23 20 18 11 5 10 7 358 2 7 7 7 5 3 4 2 6 8 4 8 9 11 10 10 10 10 10 360 345 344 337 321 309 350 6 357 342 341 351 342
102 7 74 162 130 131 200 213 208 177 170 229 279 166 136 152 170 151 149 151 245 110 266 292 235 206 255 251 284 169 79 41 43 38 32 31 30 28 28 26 24 29 29 28 27 25 22 21 20 10 8 6 6 8 7 5 2 359 359 5 7 7 7 7 7 10 10 14 11 10 9 8 4 351 342 335 343 356 358 359 351 354 340 338 344 349
324 142 263 171 133 202 234 310 198 174 173 248 123 83 85 75 61 89 112 104 336 88 242 210 180 189 277 283 350 58 82 64 63 49 41 34 31 30 25 22 24 28 33 32 33 27 22 15 10 4 2 10 9 3 3 7 6 1 2 3 6 9 6 360 4 7 11 14 12 14 9 6 359 356 354 352 360 360 356 356 351 346 343 344 336 339
192 299 196 105 183 218 130 2 115 46 158 137 115 80 47 44 42 37 60 91 65 273 242 200 205 165 257 252 174 53 30 105 114 75 51 37 37 37 38 33 21 18 17 17 14 16 11 1 7 4 11 6 7 8 7 8 5 360 5 359 3 4 3 360 0 3 8 10 12 12 8 6 1 356 357 359 4 358 355 353 346 344 341 337 329 330
356 1 107 269 23 123 127 78 18 79 99 104 84 126 69 3 15 29 346 37 171 256 260 263 204 162 204 286 82 55 57 52 93 90 60 50 41 32 20 14 12 14 13 12 14 11 6 5 9 9 11 7 2 8 10 5 4 2 1 2 1 2 3 359 360 359 5 6 6 8 7 6 360 358 358 356 359 357 351 350 341 337 335 335 330 327
278 191 262 358 310 75 359 76 24 26 330 65 78 68 114 242 42 301 27 252 212 219 16 12 129 63 250 89 101 82 77 69 74 84 86 74 51 23 20 20 18 18 15 17 16 12 13 13 7 8 4 5 8 7 3 3 2 356 359 3 3 1 358 354 356 356 359 3 5 3 2 359 358 356 359 354 354 354 349 345 343 338 336 334 334 337
285 330 22 280 19 15 65 124 226 17 251 83 131 141 106 142 156 215 256 297 336 292 273 161 285 291 164 75 131 102 89 86 84 80 78 73 61 34 24 18 18 20 21 17 17 18 17 12 8 8 5 5 2 3 3 0 359 358 357 1 1 354 358 354 357 355 356 360 360 1 1 358 355 355 356 354 352 347 345 343 339 337 337 334 333 329
339 332 301 2 169 359 28 70 179 178 155 207 111 153 179 157 156 218 187 210 215 211 338 272 89 231 179 250 96 108 99 99 89 83 80 64 55 35 31 25 24 23 22 17 17 19 15 12 10 8 5 3 2 360 2 359 357 355 355 2 357 357 352 353 358 350 356 355 354 356 357 358 357 354 354 350 349 344 341 340 337 338 336 333 329 326
233 236 268 266 269 356 24 340 103 94 62 242 160 81 79 226 133 208 206 161 190 175 27 287 192 22 64 80 120 104 108 100 100 84 54 45 33 26 32 29 23 23 20 17 16 13 15 12 9 9 6 3 1 359 2 360 359 359 357 357 354 352 349 351 353 353 353 349 349 354 355 353 355 351 350 349 350 345 340 334 337 334 334 332 327 325
30 296 311 314 58 51 341 323 326 237 191 257 104 212 210 99 94 94 35 59 67 43 249 140 6 93 153 90 147 135 129 124 98 73 53 41 35 35 38 28 23 18 18 14 12 12 9 9 10 10 4 1 0 0 1 356 355 357 355 354 351 353 350 351 355 350 349 345 348 354 354 353 351 353 354 350 344 342 338 337 338 339 333 331 336 328
154 265 303 25 290 178 278 231 6 18 144 74 185 232 104 131 108 131 222 360 67 220 255 143 181 166 146 261 144 173 152 138 99 73 54 48 34 41 31 28 21 15 14 12 13 15 13 10 8 6 2 0 357 356 356 355 354 356 355 353 352 353 351 350 351 349 350 347 350 351 352 349 350 348 347 347 345 342 344 346 343 341 342 339 332 328
104 321 306 355 272 291 346 32 323 53 23 160 196 290 112 242 241 288 113 237 220 233 249 282 225 85 197 175 141 186 161 146 114 79 57 39 34 33 25 20 19 15 13 10 10 10 10 8 6 3 357 356 355 354 354 352 354 354 357 354 356 351 349 345 344 344 345 348 346 348 346 344 344 347 346 346 344 344 349 350 345 340 335 333 336 332
37 217 299 311 20 314 346 50 246 319 330 359 334 18 287 82 214 133 198 195 117 260 230 276 157 240 126 319 161 148 133 127 112 87 63 52 42 31 25 16 11 14 13 8 6 8 5 4 3 360 356 356 356 355 356 352 353 356 355 353 354 348 349 348 351 349 347 344 343 343 344 345 345 346 347 346 346 346 348 345 344 339 337 335 330 331
318 96 242 293 319 357 10 25 11 27 336 343 12 331 7 283 244 100 338 137 170 191 232 232 269 254 41 103 126 113 112 112 110 98 85 59 46 42 34 21 13 14 13 7 4 3 1 0 359 358 357 356 353 356 359 357 357 353 352 352 353 353 350 351 348 348 345 342 339 344 346 345 346 345 346 345 346 347 346 344 342 340 332 326 334 334
33 30 233 340 5 354 217 124 207 112 262 2 328 291 315 18 312 226 253 70 56 140 232 167 244 52 292 70 101 99 102 105 102 104 96 79 51 41 35 26 22 15 14 9 4 1 358 357 356 356 357 359 358 358 1 358 354 356 356 352 349 351 352 349 347 346 341 339 336 346 344 343 343 345 345 346 345 348 345 343 340 336 334 332 329 334
136 117 84 289 190 240 168 318 212 237 178 98 66 325 40 235 65 85 227 264 16 259 124 180 333 285 79 86 98 100 98 98 90 91 99 88 58 40 31 27 27 27 16 11 4 2 359 358 356 356 357 1 1 360 358 356 356 353 352 352 351 348 346 348 341 340 338 333 336 340 345 343 345 346 346 347 346 345 343 339 336 337 337 331 327 329
90 296 315 281 325 299 324 273 15 68 352 47 68 26 21 10 2 325 347 1 149 305 37 262 221 166 62 114 107 115 114 108 97 89 101 88 72 40 30 20 21 18 13 12 8 6 1 359 358 359 360 0 360 358 358 353 353 352 351 351 347 347 344 346 342 340 338 335 335 335 338 342 346 348 348 347 344 340 338 336 334 334 336 331 326 329
56 321 102 319 2 332 343 355 11 336 60 59 18 351 18 335 7 228 47 272 57 245 171 212 244 106 192 128 118 118 122 113 104 81 76 86 81 39 33 16 20 16 10 10 6 3 0 3 4 3 356 358 354 354 353 351 351 352 349 349 346 344 343 344 340 340 337 335 335 338 339 337 342 346 346 344 341 337 334 333 333 334 334 333 329 330
93 255 83 299 282 287 283 333 286 336 289 342 70 300 320 53 339 23 14 294 122 329 65 174 8 61 105 129 143 128 125 110 100 93 72 81 62 44 36 14 15 18 6 9 2 2 3 360 357 360 357 357 354 351 349 347 347 346 346 346 344 341 342 343 341 339 335 335 337 339 340 340 343 345 344 340 336 335 333 329 330 332 331 333 327 328
169 39 133 172 178 235 220 216 260 92 337 28 285 59 296 62 328 95 249 58 226 319 13 249 110 132 36 184 166 161 137 150 128 93 67 63 53 59 41 18 23 22 6 6 2 358 356 358 358 356 354 355 350 351 346 344 343 344 342 342 342 341 342 338 339 336 334 334 337 336 337 338 340 340 335 337 333 329 330 330 328 330 331 329 326 328
61 5 251 161 236 226 222 231 289 38 267 274 305 292 302 350 240 182 222 221 81 37 294 50 24 61 262 134 205 166 141 114 115 111 96 54 26 31 19 19 21 27 9 6 1 2 357 354 350 353 351 352 349 347 343 344 342 341 341 338 337 339 343 337 338 335 333 336 335 335 334 335 334 335 332 326 327 330 328 328 328 326 326 328 329 329
178 213 265 113 264 242 276 266 290 297 236 251 268 288 288 264 7 181 236 225 153 202 245 121 37 316 277 297 68 119 118 141 109 65 68 38 15 7 5 6 10 17 9 6 2 359 352 351 348 346 348 347 345 345 343 342 342 341 338 338 335 340 341 337 337 333 335 334 336 335 332 331 333 332 329 328 325 328 331 327 325 321 321 324 323 322
80 256 232 141 287 327 306 258 282 204 258 261 242 249 262 274 255 243 266 272 165 227 234 282 278 266 283 315 109 128 100 105 117 102 62 35 348 3 358 348 352 353 356 359 356 357 349 346 344 342 343 343 345 343 340 340 340 339 336 333 335 338 335 338 333 332 333 334 332 333 332 330 332 331 328 326 327 326 327 327 324 320 317 320 320 321
97 283 79 244 60 297 282 293 220 215 242 284 277 281 283 263 264 274 275 309 272 263 259 257 252 256 28 81 111 110 107 119 80 120 124 109 57 6 344 339 341 343 343 344 345 345 345 342 340 339 343 341 343 339 337 335 334 331 330 326 332 333 331 334 327 330 332 329 331 331 331 332 332 332 329 324 323 324 325 325 325 319 314 319 319 323
75 262 43 37 339 297 317 1 288 32 300 240 274 276 269 276 288 250 208 227 204 247 269 274 286 287 130 28 99 92 86 95 116 86 40 195 141 120 9 328 338 337 337 335 336 335 337 339 337 339 339 339 339 334 338 337 335 331 327 328 332 329 329 328 326 328 327 327 329 332 330 332 330 329 327 327 324 322 320 319 317 316 317 320 323 321
95 92 359 343 328 259 272 28 324 346 4 309 259 237 239 245 223 268 245 277 238 231 276 274 259 308 127 184 119 163 86 109 50 333 280 296 135 121 31 4 332 329 322 325 325 325 329 330 333 332 334 334 332 330 336 335 329 325 324 327 327 327 326 325 327 326 325 326 330 328 328 330 330 327 326 326 322 319 318 317 315 315 318 318 314 318
34 122 241 119 205 263 325 334 347 32 271 254 329 2 261 229 237 238 254 241 271 150 223 211 265 121 164 125 167 180 128 214 147 267 24 222 187 74 6 359 332 321 323 321 318 320 319 325 323 325 327 328 322 329 329 329 319 313 316 319 319 322 321 324 324 327 324 324 327 327 328 330 329 325 321 319 318 317 316 316 314 313 314 310 312 312
145 83 218 126 211 279 342 346 339 259 254 313 306 285 174 310 323 246 268 284 259 199 250 270 222 151 193 121 128 102 181 262 53 258 149 128 101 91 46 335 325 323 327 321 320 326 326 324 322 321 325 320 322 330 323 322 318 315 319 315 315 317 315 317 319 322 322 323 323 325 327 327 326 321 318 317 316 315 313 312 311 313 315 313 307 305
182 152 191 261 154 28 50 109 182 244 240 294 281 269 242 302 246 20 312 265 244 219 203 234 212 147 120 138 124 278 288 275 292 53 119 103 103 102 74 302 304 320 308 306 319 320 322 325 325 323 319 320 329 321 322 318 318 322 314 314 316 312 315 316 318 317 320 320 321 323 325 325 320 317 315 314 314 314 311 308 308 310 311 310 303 293
155 91 116 260 135 188 197 188 240 311 313 291 281 279 139 234 134 161 250 279 194 154 160 178 132 135 128 134 167 277 285 273 180 140 82 106 117 121 324 258 300 285 290 304 307 305 312 316 313 313 315 323 321 322 320 316 322 319 315 317 313 314 316 317 315 317 318 318 318 319 320 320 315 311 311 310 310 309 307 306 307 307 309 310 304 292
170 143 232 113 256 132 184 309 330 337 277 282 243 44 294 316 340 325 93 282 107 337 34 138 158 166 152 125 10 301 293 4 307 212 157 127 313 197 283 214 267 274 290 300 307 301 303 303 303 311 316 318 316 315 314 319 319 317 314 313 314 317 315 315 313 313 317 314 316 317 315 313 310 307 306 305 302 302 301 300 297 295 298 303 304 295
21 77 143 156 247 64 37 175 223 196 247 219 240 186 346 118 22 317 64 298 280 77 69 123 137 150 163 171 199 342 26 325 270 145 170 49 315 323 302 289 272 290 300 303 303 309 308 303 304 314 316 307 308 311 315 317 313 312 312 309 311 310 309 308 306 312 314 313 313 310 307 307 305 302 300 298 296 295 296 295 293 293 295 295 293 283
56 349 65 132 230 169 135 173 251 204 248 283 211 205 215 29 247 54 337 284 249 223 13 121 141 163 184 154 146 97 172 277 302 114 111 310 304 306 324 314 326 314 303 298 303 294 294 311 317 308 308 310 307 310 315 307 306 306 304 305 303 307 301 298 303 308 311 307 305 303 303 302 298 294 292 291 291 291 288 287 289 289 288 289 289 278
359 334 107 215 181 233 222 260 329 290 267 245 188 177 162 216 49 121 220 236 166 165 196 166 178 162 171 164 189 189 231 187 33 309 329 307 322 315 308 306 299 297 308 309 303 309 314 305 299 305 309 309 308 311 309 308 303 298 295 297 302 294 293 297 306 307 303 303 303 301 297 295 291 291 289 285 285 285 285 283 282 282 283 285 286 270
329 114 326 65 177 209 213 214 242 256 244 167 354 119 212 104 154 215 239 349 142 159 182 180 191 200 193 203 210 233 267 10 308 332 319 328 312 297 311 298 301 300 282 289 306 314 305 306 307 304 305 305 308 311 310 306 302 299 301 299 294 290 293 301 299 298 302 302 300 299 296 292 286 282 285 286 285 285 283 279 279 279 278 279 278 261
203 139 220 189 216 54 50 239 335 302 282 126 131 45 50 127 231 171 138 250 159 224 156 209 183 224 161 238 241 264 297 308 311 306 306 300 305 308 311 316 313 312 315 316 311 309 311 308 308 305 307 308 308 308 306 304 302 301 303 302 296 298 301 296 297 297 296 298 298 295 294 293 290 288 285 285 283 282 282 281 278 274 270 270 265 245
201 183 259 270 179 186 158 166 205 212 211 211 170 182 219 209 104 168 143 136 193 219 179 198 201 174 151 195 256 285 278 293 300 293 298 299 300 305 304 301 302 302 304 298 299 305 307 301 301 303 304 306 304 302 300 300 297 299 301 297 296 304 302 300 299 298 300 298 295 295 293 292 292 290 289 285 284 279 276 276 273 270 264 264 252 226
209 189 189 215 225 157 205 214 246 238 215 253 42 147 241 234 196 195 358 127 164 225 210 232 172 140 171 206 269 275 292 271 282 309 308 305 307 304 304 305 305 302 301 306 306 305 304 298 303 305 304 302 302 302 299 294 293 295 296 292 300 304 302 302 304 305 302 300 298 295 293 293 291 290 287 284 279 278 276 273 271 269 264 255 237 215
327 129 159 101 255 277 255 220 199 317 257 261 65 149 185 207 266 179 163 183 184 174 154 196 173 155 170 261 268 269 249 295 304 303 296 298 300 298 299 300 297 290 294 297 301 303 303 303 300 299 300 301 301 303 300 294 290 294 289 295 300 296 299 302 305 305 302 300 298 296 297 297 294 290 284 282 279 276 272 268 266 261 265 254 223 211
272 104 116 208 279 36 271 9 220 248 231 250 221 131 153 197 200 183 229 209 177 138 143 66 112 219 261 264 239 260 277 282 284 286 291 294 292 295 302 301 298 297 300 304 300 309 308 306 305 303 303 304 305 306 301 297 294 286 290 294 292 295 297 298 302 301 300 299 298 298 297 296 294 295 293 292 289 278 271 266 257 253 252 239 212 203
310 159 342 222 200 205 250 185 240 240 260 259 202 208 222 197 204 197 217 121 126 103 129 199 155 273 198 247 240 258 273 282 284 285 292 292 293 298 298 297 300 305 301 297 300 300 299 299 297 301 303 302 304 305 302 300 296 293 293 291 289 292 299 303 302 300 299 299 298 297 296 293 297 298 296 296 292 289 288 277 260 249 231 212 199 184
195 113 244 167 209 270 307 282 266 270 253 242 225 240 227 175 182 194 157 141 136 163 206 287 202 224 202 252 296 283 282 274 267 281 286 288 288 286 293 297 298 297 302 306 303 302 297 297 298 298 299 298 301 303 301 297 295 294 295 292 295 303 310 307 304 300 297 295 297 296 296 296 294 294 296 298 294 289 285 282 270 257 175 13 207 173
88 236 201 353 285 269 252 256 129 297 291 322 226 229 220 183 175 177 165 176 181 201 217 238 277 257 237 245 242 242 262 279 281 282 283 280 284 289 293 295 299 300 299 295 294 293 293 291 292 296 298 298 300 301 300 299 298 297 293 295 298 310 314 308 306 304 301 300 298 298 298 296 297 297 298 298 300 304 306 314 299 211 145 127 121 117
199 229 157 223 193 264 245 216 184 123 319 271 43 196 184 159 159 175 199 204 214 221 201 209 264 295 260 246 219 225 252 269 278 288 285 284 285 285 286 290 296 299 298 301 301 299 297 299 302 298 296 297 301 301 300 299 299 299 300 300 305 317 309 306 306 303 302 303 301 300 300 300 303 301 300 301 307 306 307 311 349 45 102 126 121 126